Retour au catalogue

ONEWEB-0276

ActifCommunicationsPO
NORAD 48994·PAYLOAD·🇬🇧 United Kingdom

Lancé Jul 1, 2021 depuis Vostochny Cosmodrome

Loading…

Prochains Passages (prochaines 24 heures)

TLE

FraisSource: CelesTrak SupGP

Époque: Sep 14, 2026, 22:42 UTC

1 48994C 21060AD  26257.94599954 -.00002073  00000+0 -54293-2 0  2574
2 48994  87.9153 210.9526 0002249  80.8069 312.0481 13.16596762    18

Suivez ONEWEB-0276 en temps réel avec AllMySat

Download on the App Store